Location: Pl�tzky
(52.0521°N, 11.8020°E)
Time: 10:09:47
(UTC+00:00)

ALOS - Pass Details

Date: 22 November 2019
Orbit: 683 x 685 km, 97.8° (Epoch: 12 December)

Event Time Altitude Azimuth Distance (km) Brightness Sun altitude
Rises 15:56:55 0° 177° (S) 3,037 5.9 -6.8°
Reaches altitude 10° 15:59:11 10° 182° (S) 2,126 5.2 -7.1°
Maximum altitude 16:03:45 55° 260° (W) 827 3.2 -7.7°
Drops below altitude 10° 16:08:21 10° 338° (NNW) 2,142 4.8 -8.4°
Sets 16:10:40 0° 343° (NNW) 3,062 5.6 -8.7°
